リニア彗星

C/2005 K2 ( LINEAR )

English version
Home page
Total 6,336 html files since Dec. 4, 1995
Updated on August 13, 2005

---------------------------------------------------------------------

・ プロフィール

発見日 2005年5月19日
発見光度 18.7等
発見者 Lincoln Laboratory Near-Earth Asteroid Research project

・ 写真集

・ 軌道要素

T 2005 July 5.3934 TT                                   MPC
q   0.544604             (2000.0)            P               Q
                   Peri.  216.5764      -0.6497537      +0.2961275
                   Node    45.7129      -0.2159616      +0.8111327
e   1.0            Incl.  102.0443      -0.7288215      -0.5043533
>From 122 observations 2005 May 20-June 20.

・ 星図

・ 光度変化

        m1 = 13.5 + 5 logΔ + 25   log r          [   ,-24]  (              〜2005年 6月11日)
        m1 = 15.0 + 5 logΔ + 19.5 log r(t + 13)  [-24,  5]  (2005年 6月11日〜2005年 7月10日)
        m1 = 24.5 + 5 logΔ + 50   log r          [  5,   ]  (2005年 7月10日〜              )

        ※ 灰色の曲線は、m1 = 13.5 + 5 logΔ + 10.0 log r の光度曲線です。

---------------------------------------------------------------------

軌道要素はM.P.E.C. 2005-M54に掲載されたものです。
星図は StellaNavigator Ver.2.0 for Windows (アストロアーツ 編著 / アスキー出版局刊) で作成したものです。
光度グラフはComet for Windowsで作成したものです。

---------------------------------------------------------------------

Copyright(C) 1995-2008 Seiichi Yoshida (comet@aerith.net). All rights reserved.